TimeEDT,TemperatureF,Dew PointF,Humidity,Sea Level PressureIn,VisibilityMPH,Wind Direction,Wind SpeedMPH,Gust SpeedMPH,PrecipitationIn,Events,Conditions,WindDirDegrees,DateUTC
12:53 AM,48.9,46.9,93,30.02,10.0,NNW,5.8,-,0.01,,Overcast,330,2012-10-27 04:53:00
1:53 AM,48.0,45.0,89,30.01,10.0,North,9.2,-,N/A,,Overcast,350,2012-10-27 05:53:00
2:08 AM,48.2,44.6,87,30.02,10.0,North,10.4,-,N/A,,Overcast,360,2012-10-27 06:08:00
2:53 AM,48.0,45.0,89,30.00,10.0,NNW,5.8,-,N/A,,Overcast,340,2012-10-27 06:53:00
3:53 AM,46.9,45.0,93,29.98,10.0,North,8.1,-,0.00,Rain,Light Rain,350,2012-10-27 07:53:00
4:53 AM,46.9,45.0,93,29.98,10.0,North,5.8,-,0.00,,Overcast,10,2012-10-27 08:53:00
5:53 AM,46.9,45.0,93,29.98,7.0,North,4.6,-,0.00,Rain,Light Rain,360,2012-10-27 09:53:00
6:01 AM,46.4,44.6,93,30.00,8.0,Variable,4.6,-,0.00,,Overcast,0,2012-10-27 10:01:00
6:53 AM,46.0,45.0,96,30.00,7.0,North,5.8,-,0.00,,Overcast,350,2012-10-27 10:53:00
7:53 AM,46.0,45.0,96,30.02,2.5,NNW,5.8,-,0.03,Rain,Light Rain,330,2012-10-27 11:53:00
7:58 AM,46.4,44.6,93,30.02,3.0,NNW,5.8,-,0.00,Rain,Light Rain,330,2012-10-27 11:58:00
8:45 AM,46.4,44.6,93,30.04,3.0,North,6.9,-,0.05,Rain,Heavy Rain,360,2012-10-27 12:45:00
8:53 AM,46.0,45.0,96,30.04,2.5,North,4.6,-,0.07,Rain,Rain,350,2012-10-27 12:53:00
9:15 AM,46.4,44.6,93,30.05,8.0,NNW,5.8,-,0.01,Rain,Light Rain,330,2012-10-27 13:15:00
9:27 AM,46.4,44.6,93,30.05,10.0,NNW,6.9,-,0.01,Rain,Light Rain,330,2012-10-27 13:27:00
9:53 AM,46.0,44.1,93,30.06,10.0,North,8.1,-,0.01,,Overcast,350,2012-10-27 13:53:00
10:09 AM,46.4,44.6,93,30.06,10.0,NNW,9.2,-,N/A,,Overcast,340,2012-10-27 14:09:00
11:53 AM,46.9,44.1,90,30.06,10.0,North,8.1,-,0.01,,Overcast,360,2012-10-27 15:53:00
12:53 PM,46.9,44.1,90,30.04,8.0,NNE,8.1,-,N/A,,Overcast,30,2012-10-27 16:53:00
1:53 PM,48.0,44.1,86,30.02,10.0,NNE,10.4,-,N/A,,Overcast,20,2012-10-27 17:53:00
2:53 PM,48.0,45.0,89,30.00,10.0,North,6.9,-,N/A,,Overcast,360,2012-10-27 18:53:00
3:53 PM,46.9,44.1,90,29.99,9.0,North,11.5,-,N/A,,Overcast,360,2012-10-27 19:53:00
4:53 PM,46.9,44.1,90,30.01,10.0,North,6.9,-,N/A,,Overcast,10,2012-10-27 20:53:00
5:53 PM,46.9,44.1,90,30.01,10.0,North,5.8,-,N/A,,Overcast,360,2012-10-27 21:53:00
6:31 PM,46.4,44.6,93,30.02,10.0,North,6.9,-,N/A,,Overcast,360,2012-10-27 22:31:00
6:53 PM,46.9,43.0,86,30.02,10.0,North,8.1,-,N/A,,Overcast,10,2012-10-27 22:53:00
7:35 PM,46.4,44.6,93,30.02,10.0,North,10.4,-,N/A,,Overcast,10,2012-10-27 23:35:00
7:53 PM,46.0,44.1,93,30.03,9.0,North,9.2,-,N/A,,Overcast,10,2012-10-27 23:53:00
8:53 PM,46.0,44.1,93,30.03,9.0,Variable,5.8,-,N/A,,Overcast,0,2012-10-28 00:53:00
9:53 PM,45.0,44.1,97,30.04,3.0,North,11.5,17.3,0.00,Rain,Light Rain,10,2012-10-28 01:53:00
10:53 PM,45.0,43.0,93,30.03,7.0,NNE,8.1,-,0.00,,Overcast,20,2012-10-28 02:53:00